Voltar ao catálogo

STARLINK-5085

AtivoComunicaçõesVLEO
NORAD 55392·PAYLOAD·🇺🇸 United States

Lançado Jan 31, 2023 de Vandenberg Space Force Base

Loading…

Próximas Passagens (próximas 24 horas)

TLE

AtualizadoSource: CelesTrak SupGP

Época: Sep 14, 2026, 21:29 UTC

1 55392C 23014B   26257.89562500  .00053688  00000+0  44993-2 0  2578
2 55392  69.9997 287.2897 0003744 267.1164  55.6237 14.98302064    19

Acompanhe STARLINK-5085 em tempo real com AllMySat

Download on the App Store